Location: Kopernik Observatory
(42.0014°N, 76.0372°W)
Time: 01:28:55
(UTC-04:00)

Daily predictions for brighter satellites

Satellite Brightness Start Highest point End
(mag) Time Altitude Azimuth Time Altitude Azimuth Time Altitude Azimuth
Cosmos 1766 Rocket 3.6 00:06:17 77° ENE 00:06:17 77° ENE 00:10:35 10° N
Cosmos 1867 3.4 00:08:44 69° SSE 00:09:05 71° ESE 00:14:34 10° NE
Cosmos 1328 Rocket 4.3 00:06:02 10° N 00:10:01 42° ENE 00:10:01 42° ENE
Meteor 1-24 Rocket 3.8 00:10:29 56° SSW 00:11:52 84° W 00:17:47 10° N
S3M 3.9 00:09:19 10° N 00:15:35 83° E 00:16:50 59° SSE
H-2A R/B 3.9 00:14:20 17° WSW 00:15:40 18° W 00:19:09 10° NW
Cosmos 1428 Rocket 4.4 00:17:36 59° S 00:18:52 84° E 00:25:07 10° N
Cosmos 468 Rocket 4.1 00:15:51 10° NNW 00:21:02 61° WSW 00:21:20 60° WSW
Lacrosse 5 2.8 00:16:56 10° NW 00:21:46 43° NE 00:23:43 30° E
USA 234 4.3 00:24:29 28° SW 00:24:47 28° SW 00:30:18 10° WNW
NOSS 3-2 (A) 4.1 00:22:47 20° WSW 00:27:01 54° NW 00:33:37 10° NNE
Cosmos 1515 Rocket 4.1 00:22:59 10° N 00:27:06 50° ENE 00:27:06 50° ENE
Cosmos 1814 Rocket 4.2 00:26:46 10° NNW 00:31:57 56° WSW 00:32:11 55° WSW
Helios 1A Rocket 3.9 00:30:12 10° NNE 00:33:12 39° ENE 00:33:12 39° ENE
Cosmos 2344 3.6 00:35:51 47° S 00:38:18 72° ESE 00:46:58 10° NE
Genesis I 4.1 00:35:33 10° NW 00:38:28 47° NW 00:38:28 47° NW
Timation 2 Rocket 4.3 00:37:11 41° SW 00:39:45 72° WNW 00:46:33 10° NNE
Cosmos 2369 3.7 00:34:43 10° NNW 00:40:19 63° WSW 00:40:41 62° SW
BREEZE-M TANK 3.9 00:31:07 10° SW 00:49:41 59° SSE 00:53:51 10° ENE
Cosmos 2228 Rocket 3.7 00:46:35 10° NNW 00:50:23 47° WNW 00:50:23 47° WNW
CZ-4C R/B 3.5 00:48:42 16° WSW 00:52:32 37° NW 00:58:11 10° NNE
Cosmos 1980 Rocket 3.1 00:48:21 10° NNW 00:53:42 42° ENE 00:55:32 33° ESE
Cosmos 1763 Rocket 3.5 00:50:16 10° NNW 00:55:31 64° WSW 00:55:33 64° WSW
Cosmos 2151 4.0 00:57:24 37° ENE 00:57:24 37° ENE 01:00:42 10° NNE
Meteor 1-21 Rocket 4.1 01:00:00 69° SSW 01:00:41 82° W 01:06:23 10° N
Cosmos 405 Rocket 4.5 01:02:49 25° WNW 01:02:49 25° WNW 01:05:34 10° NNW
Aureole 1 Rocket 3.8 01:02:40 10° NNW 01:07:36 67° ENE 01:08:45 54° ESE
Cosmos 1151 Rocket 3.3 01:03:38 10° N 01:07:19 64° NNE 01:07:19 64° NNE
Cosmos 1908 4.1 01:04:53 10° N 01:07:44 48° N 01:07:44 48° N
ALOS 2 3.7 01:09:34 36° WNW 01:09:34 36° WNW 01:13:00 10° NNW
CZ-4B R/B 3.4 01:11:20 26° WNW 01:11:20 26° WNW 01:13:25 10° NNW
Meteor 2-20 Rocket 4.4 01:10:31 62° SSW 01:11:36 80° W 01:17:49 10° N
Cosmos 1300 4.4 01:09:08 10° NNE 01:12:04 26° ENE 01:12:04 26° ENE
Cosmos 1697 Rocket 2.5 01:06:46 10° NNW 01:12:29 87° WSW 01:13:02 73° SSE
ISS -1.0 01:10:43 10° NW 01:13:29 25° NNE 01:13:33 25° NNE
CENTAUR R/B 2.4 01:16:44 63° S 01:17:45 78° ESE 01:24:37 10° NE
Cosmos 2082 Rocket 2.6 01:16:38 46° WSW 01:17:53 55° WNW 01:23:28 10° NNE
Cosmos 405 4.4 01:14:29 10° N 01:17:00 38° NNE 01:17:00 38° NNE
ATLAS 5 CENTAUR R/B 4.2 01:18:56 11° E 01:18:56 11° E 01:19:51 10° E
Cosmos 1833 Rocket 2.7 01:17:26 60° WSW 01:18:18 71° WNW 01:23:57 10° NNE
H-2A R/B 4.0 01:15:15 10° NNW 01:18:16 25° WNW 01:18:16 25° WNW
Cosmos 1726 4.1 01:17:03 10° NNE 01:19:46 23° ENE 01:19:46 23° ENE
Cosmos 1441 Rocket 4.0 01:22:02 51° NNW 01:22:02 51° NNW 01:25:07 10° N
Cosmos 1656 4.0 01:21:36 10° NW 01:27:06 50° WSW 01:27:08 50° WSW
ASTEX 1 3.6 01:31:27 10° NNE 01:36:20 56° E 01:36:38 55° ESE
Lacrosse 5 rocket 2.1 01:32:58 10° NW 01:37:11 53° NE 01:38:02 45° E
Cosmos 1674 3.9 01:38:42 37° NW 01:38:42 37° NW 01:41:27 10° N
Cosmos 1437 Rocket 3.9 01:34:08 10° NNW 01:36:49 38° NW 01:36:49 38° NW
Sich 1 3.7 01:39:15 46° E 01:39:15 46° E 01:43:22 10° NNE
Cosmos 968 Rocket 3.9 01:39:55 47° ESE 01:40:07 47° ESE 01:45:03 10° NNE
CZ-2C R/B 2.6 01:36:47 10° N 01:42:17 72° WNW 01:43:03 62° SW
PSLV R/B 4.1 01:44:04 71° N 01:44:04 71° N 01:47:49 10° NNW
Cosmos 2360 4.1 01:46:30 10° NNW 01:52:15 86° ENE 01:53:30 57° SSE
Cosmos 371 Rocket 3.4 01:48:47 10° NNW 01:53:38 69° ENE 01:54:14 61° ESE
USA 32 4.1 01:51:39 10° NNW 01:56:50 61° W 01:57:14 59° WSW
Iridium 2 4.4 01:59:39 49° NNW 01:59:39 49° NNW 02:02:40 10° N
SL-16 R/B 2.7 01:55:32 10° NNW 02:01:08 55° ENE 02:03:55 29° SE
Cosmos 1745 Rocket 4.0 02:00:50 52° S 02:02:32 81° E 02:08:53 10° N
Lacrosse 5 3.1 02:00:01 10° WNW 02:02:51 28° W 02:02:51 28° W
Cosmos 2058 3.4 02:05:33 52° WNW 02:05:33 52° WNW 02:09:19 10° N
Nadezhda 1 Rocket 4.0 02:00:40 10° N 02:06:50 76° E 02:08:46 46° SSE
Cosmos 2322 Rocket 2.3 02:04:55 10° NNW 02:10:33 71° ENE 02:12:46 37° SE
Meteor 2-10 4.3 02:12:57 10° N 02:18:14 65° ENE 02:20:05 40° SE
Meteor 1-4 Rocket 3.2 02:15:53 10° N 02:19:36 51° ENE 02:19:43 50° E
Cosmos 1538 Rocket 3.9 02:15:02 10° NNW 02:20:15 69° WSW 02:20:55 61° SSW
Meteor 1-27 4.4 02:14:31 10° NNW 02:20:15 58° W 02:21:18 50° SW
Cosmos 923 Rocket 4.4 02:18:45 10° NNW 02:23:58 60° ENE 02:26:25 30° SE
SL-14 R/B 3.9 02:27:34 45° WNW 02:27:34 45° WNW 02:30:55 10° N
Cosmos 773 Rocket 3.9 02:22:46 10° NNW 02:27:56 80° ENE 02:29:35 44° SSE
Cosmos 1777 Rocket 3.9 02:28:51 56° S 02:29:59 83° ESE 02:35:18 10° NNE
Cosmos 1680 Rocket 4.1 02:26:26 10° N 02:31:33 53° ENE 02:34:46 22° SE
CZ-2C R/B 3.9 02:31:01 37° WSW 02:31:35 38° W 02:36:54 10° NNW
NPP 4.2 02:27:56 10° NNE 02:33:11 51° E 02:35:03 35° SSE
Cosmos 1271 Rocket 2.6 02:30:25 10° N 02:34:09 78° ENE 02:34:09 78° ENE
ERS-2 2.7 02:30:55 10° NNE 02:34:33 49° E 02:34:37 49° ESE
Cosmos 2292 Rocket 4.4 02:34:34 29° ESE 02:34:58 30° E 02:38:24 10° NNE
Cosmos 1980 Rocket 3.2 02:32:45 10° NW 02:37:16 28° W 02:37:16 28° W
Cosmos 1703 3.3 02:38:10 64° WNW 02:38:10 64° WNW 02:42:03 10° N
Cosmos 2360 Rocket 3.2 02:33:06 10° NNW 02:38:29 44° ENE 02:43:50 10° SE
Cosmos 1869 3.8 02:35:13 10° N 02:39:09 55° E 02:39:56 46° SE
USA 215 3.8 02:33:48 10° ENE 02:40:00 44° SE 02:42:14 33° S
Cosmos 1633 Rocket 3.9 02:41:33 36° W 02:41:52 37° WNW 02:46:00 10° N
JB-3 4.1 02:40:44 10° N 02:44:43 81° WNW 02:44:58 76° SW
CBERS-1 4.5 02:40:51 10° NNE 02:45:52 53° E 02:47:47 34° SSE
PSLV R/B 3.7 02:41:45 10° N 02:46:14 62° WNW 02:46:56 53° WSW
ARIANE 5 R/B 4.3 02:47:45 10° NE 02:51:51 24° E 02:55:08 13° SE
Cosmos 1726 4.0 02:52:32 10° NW 02:54:26 19° WNW 02:54:26 19° WNW
Resurs 1-4 Rocket 4.2 02:51:30 10° NE 02:55:21 20° E 02:59:10 10° SE
IRAS Rocket 4.2 02:55:52 10° N 03:01:19 69° WNW 03:03:25 38° SW
ATLAS 5 CENTAUR R/B 1.8 03:00:29 45° SW 03:02:01 87° NW 03:07:18 10° NE
Cosmos 2219 4.2 02:59:21 23° SSE 03:02:18 39° ESE 03:07:36 10° NE
Cosmos 1703 Rocket 4.1 02:58:26 10° N 03:02:43 53° E 03:05:05 24° SSE
Cosmos 2322 4.0 02:57:53 10° NNW 03:03:37 68° ENE 03:09:19 10° SSE
Cosmos 1470 Rocket 4.1 03:04:26 39° WSW 03:05:12 42° WNW 03:09:25 10° N
IRS-P3 4.1 03:01:15 10° N 03:06:34 70° WNW 03:08:40 37° SW
CENTAUR R/B 4.2 03:03:52 10° W 03:09:14 27° NW 03:15:09 10° NNE
Cosmos 1933 Rocket 4.2 03:08:34 36° WSW 03:09:22 39° WNW 03:13:32 10° N
SL-08 R/B 3.3 03:09:01 37° S 03:10:56 71° WSW 03:15:52 10° NNW
Okean 1-7 4.1 03:09:46 10° N 03:13:58 43° ENE 03:17:32 13° SSE
Cosmos 1455 2.7 03:11:23 10° NNW 03:14:56 40° W 03:15:01 40° W
Lacrosse 5 rocket 3.5 03:12:44 10° WNW 03:13:42 15° W 03:13:42 15° W
Cosmos 2181 Rocket 4.0 03:11:29 10° NNW 03:17:37 68° W 03:21:09 27° S
Cosmos 1626 2.7 03:18:21 38° W 03:18:47 40° WNW 03:22:21 10° N
ADEOS 3.6 03:16:32 10° NNE 03:21:47 82° ESE 03:24:36 28° S
Cosmos 1933 3.2 03:19:44 10° N 03:23:46 85° W 03:25:27 34° S
OAO 3 Rocket 4.3 03:26:05 24° SSE 03:26:05 24° SSE 03:28:49 10° SE
Cosmos 2150 Rocket 4.4 03:23:41 24° S 03:26:46 60° ESE 03:32:05 10° NNE
Cosmos 2112 Rocket 4.0 03:22:19 10° NNW 03:27:24 57° WSW 03:30:11 26° S
BREEZE-M DEB (TANK) 4.3 03:23:17 10° W 03:33:57 60° N 03:37:35 10° E
Cosmos 1833 4.4 03:33:18 27° SW 03:36:24 63° WNW 03:42:08 10° NNE
Cosmos 1346 3.9 03:37:22 35° W 03:37:38 36° WNW 03:40:30 10° N
COSMOS 2428 3.1 03:32:18 10° NNW 03:37:58 65° ENE 03:43:36 10° SE
Cosmos 304 Rocket 4.3 03:33:56 10° NW 03:38:27 40° WSW 03:40:21 28° SSW
USA 129 4.5 03:38:34 11° ENE 03:38:45 11° ENE 03:39:16 10° NE
Cosmos 2074 Rocket 4.0 03:37:01 20° S 03:41:30 87° W 03:47:48 10° N
ATLAS CENTAUR R/B 1.5 03:36:52 10° NNW 03:41:35 87° NE 03:45:53 10° SSE
USA 161 1.5 03:43:22 44° WNW 03:43:22 44° WNW 03:45:21 10° NNW
H-2A R/B 4.5 03:08:15 10° W 03:44:31 36° SW 03:50:32 10° SSE
SL-16 R/B 3.4 03:40:37 10° NW 03:44:46 21° W 03:45:43 20° WSW
USA 229 DEB 3.7 03:40:56 23° SSW 03:45:35 85° ESE 03:52:37 10° NE
USA 229 3.7 03:41:02 23° SSW 03:45:40 84° SE 03:52:43 10° NE
Cosmos 2237 Rocket 4.4 03:42:24 10° N 03:47:14 28° NE 03:52:03 10° ESE
GPS 2-05 Rocket1 4.3 03:50:39 20° SSE 03:50:39 20° SSE 03:52:32 10° SE
Cosmos 2184 Rocket 4.0 03:46:16 19° SSW 03:51:03 77° W 03:57:24 10° N
Cosmos 2322 Rocket 3.7 03:50:38 10° WNW 03:53:54 16° W 03:54:31 16° WSW
Cosmos 2327 Rocket 4.5 03:49:48 19° SSW 03:54:18 70° W 04:00:33 10° N
CZ-2D R/B 2.3 03:51:13 10° NNE 03:56:30 69° ESE 04:01:23 12° S
UNK 3.8 03:52:42 10° SSE 03:57:16 83° ENE 04:01:52 10° N
Cosmos 292 Rocket 3.9 03:52:34 10° NNW 03:57:24 77° ENE 04:02:10 10° SSE
Cosmos 2219 Rocket 3.3 03:52:59 10° NNW 03:58:24 47° ENE 04:03:45 10° SE
Cosmos 990 Rocket 4.5 03:55:09 13° S 03:59:36 56° ESE 04:04:38 10° NNE
Okean O Rocket 3.2 03:56:13 10° NNE 04:00:10 32° E 04:04:05 10° SSE
Cosmos 2237 4.2 03:54:34 10° NNW 04:00:20 82° WSW 04:06:03 10° SSE
BREEZE-M DEB (TANK) 3.8 03:52:16 18° SW 04:00:55 59° SSE 04:04:41 10° ENE
FALCON 9 R/B 2.5 04:02:01 12° SSE 04:02:01 12° SSE 04:02:27 10° SE
CRYOSAT 2 4.3 03:56:29 10° N 04:01:21 73° W 04:05:17 16° SSW
ATLAS 2A CENTAUR R/B 4.3 03:56:24 17° SSW 04:02:37 37° SSE 04:40:31 10° E
AVUM R/B 3.7 04:03:27 22° SSE 04:04:15 29° ESE 04:06:11 10° NE
Meteor 2-10 Rocket 4.2 04:00:01 10° N 04:05:00 54° ENE 04:10:08 10° SSE
SL-16 R/B 2.5 03:59:46 10° S 04:06:02 76° WSW 04:12:20 10° NNW
CZ-2D R/B 4.4 04:03:27 10° NNE 04:07:25 44° E 04:11:15 10° S
ERS-2 4.5 04:06:23 10° NW 04:07:55 12° WNW 04:09:26 10° W
UNKNOWN OBJECT B 3.1 04:04:41 10° NNE 04:08:31 64° ESE 04:12:15 11° S
Cosmos 2298 Rocket 4.4 04:06:07 19° SW 04:09:48 50° WNW 04:15:01 10° N
MTI 3.8 04:07:23 10° SSE 04:10:44 84° WSW 04:14:07 10° NNW
Cosmos 1869 Rocket 4.4 04:08:33 19° SW 04:11:03 34° WNW 04:15:07 10° N
Meteor 2-3 Rocket 3.8 04:14:49 12° SSW 04:20:08 69° W 04:25:58 10° N
Cosmos 2360 Rocket 3.1 04:17:34 10° NW 04:22:13 27° WSW 04:26:51 10° SSW
USA 215 3.7 04:16:43 10° NE 04:23:06 58° NNW 04:29:29 10° WSW
Cosmos 220 Rocket 3.9 04:20:02 13° SSW 04:23:49 89° WNW 04:28:10 10° NNE
DELTA 2 R/B (1) 4.5 04:23:52 14° SW 04:28:10 36° SSE 04:33:14 10° E
In-Cosmos 22 Rocket 4.4 04:23:36 12° SSW 04:28:20 53° WNW 04:33:40 10° N
Cosmos 2227 Rocket 2.9 04:23:00 10° S 04:28:26 51° ESE 04:33:53 10° NE
ARIANE 5 R/B 3.2 04:26:23 10° N 04:31:06 40° WNW 04:35:28 11° SW
EO 1 Del DPAF 4.4 04:29:57 12° SSW 04:32:51 26° W 04:36:11 10° NW
Resurs 1-4 Rocket 2.4 04:30:18 10° N 04:35:29 53° WNW 04:40:38 10° SSW
CZ-4B R/B 3.6 04:32:45 10° NNE 04:38:13 65° ESE 04:43:45 10° S
Cosmos 1733 Rocket 3.1 04:35:44 10° SSW 04:40:01 61° W 04:44:23 10° N
IRS-1D 4.4 04:36:27 10° N 04:41:21 38° WNW 04:46:09 10° SW
Cosmos 1937 Rocket 4.2 04:39:01 11° SW 04:43:54 42° WNW 04:48:56 10° N
Cosmos 2333 4.5 04:38:53 10° NW 04:44:18 48° WSW 04:49:44 10° S
Cosmos 2219 4.3 04:41:22 10° WSW 04:46:29 33° WNW 04:51:40 10° N
Thor Agena Rocket 3.6 04:41:31 10° SSE 04:46:49 86° WSW 04:52:08 10° NNW
Cosmos 1408 4.4 04:43:40 10° SSE 04:46:58 32° E 04:50:18 10° NNE
SL-23 DEB 3.8 04:44:05 10° WNW 04:47:18 54° SW 04:51:55 10° SE
Cosmos 1125 Rocket 3.9 04:42:19 10° S 04:47:32 66° ESE 04:52:49 10° NNE
ATLAS 5 CENTAUR R/B 4.0 04:44:05 10° WNW 04:47:34 18° NNW 04:51:14 10° N
Cosmos 1606 3.4 04:45:17 10° N 04:49:02 57° E 04:52:45 10° SSE
PSLV R/B 3.9 04:45:39 10° N 04:49:38 75° WNW 04:53:41 10° SSW
NOSS 0 Rocket 3.9 04:44:59 10° NNW 04:51:09 77° WSW 04:57:16 10° SSE
Meteor 1-10 Rocket 4.3 04:46:57 10° NNW 04:52:38 65° W 04:58:24 10° S
Coronas F rocket 1.3 04:51:01 10° SSW 04:53:44 67° W 04:56:29 10° N
Abrixas 2.4 04:52:33 10° WNW 04:55:38 73° SSW 04:58:42 10° SE
Cosmos 1048 Rocket 4.4 04:53:23 10° NNW 04:58:38 71° ENE 05:03:55 10° SSE
Okean 3 4.2 04:55:30 10° N 04:59:40 58° E 05:03:50 10° SSE
Okean 2 Rocket 4.2 04:55:52 10° SSE 05:00:10 48° E 05:04:30 10° NNE
Cosmos 2297 Rocket 2.6 04:55:17 10° S 05:00:52 65° ESE 05:06:29 10° NNE
